Location: Ahstedt
(52.2048°N, 10.1060°E)
Time: 07:06:08
(UTC+00:00)

Cosmos 540 Rocket - Pass Details

Date: 18 January 2026
Orbit: 736 x 747 km, 74.1° (Epoch: 18 February)

Event Time Altitude Azimuth Distance (km) Brightness Sun altitude
Exits shadow 06:20:21 - 318° (NW) 2,419 5.5 -8.7°
Reaches altitude 10° 06:20:51 10° 316° (NW) 2,252 5.4 -8.7°
Maximum altitude 06:25:04 27° 260° (W) 1,405 4.4 -8.1°
Drops below altitude 10° 06:29:16 10° 204° (SSW) 2,241 5.9 -7.5°
Sets 06:31:54 0° 192° (SSW) 3,160 6.9 -7.1°
